Location: Bosdarros
(43.2167°N, 0.3667°W)
Time: 14:37:38
(UTC+00:00)

CSL-04 Rocket - Pass Details

Date: 22 April 2021
Orbit: 806 x 860 km, 98.9° (Epoch: 13 May)

Event Time Altitude Azimuth Distance (km) Brightness Sun altitude
Rises 19:16:29 0° 166° (SSE) 3,317 6.4 -4.9°
Reaches altitude 10° 19:18:49 10° 167° (SSE) 2,386 5.7 -5.3°
Maximum altitude 19:24:06 84° 256° (WSW) 817 3.7 -6.2°
Drops below altitude 10° 19:29:24 10° 345° (NNW) 2,398 6.7 -7.1°
Sets 19:31:45 0° 346° (NNW) 3,336 7.4 -7.4°
